Simultaneous Nadir Overpasses (SNOs) Predictions

Prediction of SNOs between METOP-B and TERRA Satellite Orbit:

Table of predicted SNOs for the next 14.0 days since TLE Epoch: 11/28/2015
Index Date (METOP-B) Time (METOP-B) Lat,Lon (METOP-B) SZA (METOP-B ) Date (TERRA) Time (TERRA) Lat,Lon (TERRA) SZA (TERRA ) Distance(km) Time Diff (sec)
1 11/28/2015 05:13:58 81.34, 149.42 105.62 11/28/2015 05:14:46 81.34, 149.30 105.63 2.14 48
2 11/28/2015 06:04:38 -81.34, -42.93 74.34 11/28/2015 06:04:12 -81.35, -42.78 74.33 2.67 26
3 12/01/2015 00:48:17 81.34,-144.03 106.08 12/01/2015 00:48:59 81.34,-144.09 106.10 1.13 42
4 12/01/2015 01:38:57 -81.34, 23.66 73.88 12/01/2015 01:38:26 -81.34, 23.48 73.92 2.91 31
5 12/03/2015 20:22:36 81.34, -77.93 106.43 12/03/2015 20:23:12 81.33, -77.94 106.44 0.77 36
6 12
